[[{"header":{"parameterUnit":"m.s-1","parameterCategory":1,"la1":30.2991,"la2":30.254,"lo1":-89.0895,"lo2":-89.0444,"dy":0.0017,"dx":0.0017,"nx":28,"ny":28,"refTime":"2025-03-21T09:00:00:Z","depth":0,"parameterNumber":2,"parameterNumberName":"U-component_of_WINDS"},"data":[0,0,0,0,0,0,0,0,0,0,0,0,0,0,0,0,0,0,0,0,0,0,0,0,0,0,0,0,0,0,0,0,0,0,0,0,0,0,0,0,0,0,0,0,0,0,0,0,0,0,0,0,0,0,0,0,0,0,-0.0642,-0.0641,0,-0.0575,-0.0574,-0.0573,-0.0539,-0.0539,-0.0539,-0.0539,-0.0471,-0.0469,-0.0468,0,0,0,0,0,0,0,0,0,0,0,0,0,-0.074,-0.0739,-0.0642,-0.0641,-0.064,-0.0575,-0.0574,-0.0573,-0.0539,-0.0539,-0.0539,-0.0539,-0.0472,-0.0469,-0.0467,0,0,0,0,0,0,0,0,0,0,0,0,0,-0.0688,-0.0738,-0.0642,-0.0615,-0.0612,-0.0575,-0.0574,-0.0573,-0.0539,-0.0539,-0.0539,-0.0539,-0.0472,-0.047,-0.0467,-0.0452,0,0,-0.0459,-0.0458,0,0,0,0,0,0,0,0,-0.0691,-0.0685,-0.062,-0.0617,-0.0613,-0.0565,-0.0584,-0.0533,-0.0539,-0.0567,-0.0539,-0.0539,-0.0502,-0.0497,-0.0485,-0.0449,-0.0446,-0.0459,-0.0457,-0.0456,-0.0455,0,0,0,0,0,0,0,-0.0695,-0.0687,-0.0615,-0.0619,-0.0615,-0.0607,-0.0599,-0.0574,-0.0536,-0.0564,-0.0562,-0.0554,-0.0501,-0.0488,-0.0483,-0.0445,-0.0459,-0.0457,-0.0455,-0.0454,-0.0395,-0.0395,0,0,0,0,0,0,-0.0703,-0.069,-0.0617,-0.0613,-0.0653,-0.0605,-0.0597,-0.0581,-0.0536,-0.0529,-0.0554,-0.0553,-0.0492,-0.0486,-0.0481,-0.0461,-0.0456,-0.0454,-0.0452,-0.0395,-0.0395,-0.0395,0,0,0,0,0,0,-0.0705,-0.0696,-0.062,-0.0651,-0.0641,-0.0603,-0.0586,-0.0579,-0.0566,-0.0528,-0.0521,-0.0548,-0.0492,-0.0484,-0.046,-0.0458,-0.0452,-0.045,-0.0395,-0.0395,-0.0395,-0.0421,0,0,0,0,0,0,-0.0708,-0.0697,-0.0691,-0.0651,-0.0639,-0.06,-0.0586,-0.0578,-0.0562,-0.0559,-0.0521,-0.0514,-0.0491,-0.0464,-0.0457,-0.0454,-0.0448,-0.0395,-0.0395,-0.0395,-0.042,-0.0422,-0.0423,0,0,0,0,0,-0.0711,-0.0701,-0.0691,-0.0682,-0.063,-0.06,-0.0593,-0.0567,-0.0562,-0.0555,-0.0531,-0.0515,-0.0459,-0.0462,-0.0454,-0.045,-0.0395,-0.0395,-0.0395,-0.0419,-0.0421,-0.0423,0,0,0,0,0,0,-0.0741,-0.0695,-0.0683,-0.066,-0.0634,-0.0594,-0.0585,-0.057,-0.0545,-0.0544,-0.0512,-0.0504,-0.0483,-0.0464,-0.0467,-0.0434,-0.0425,-0.0424,-0.0447,-0.0449,-0.045,-0.0455,-0.0446,0,0,0,0,0,-0.0745,-0.0724,-0.0685,-0.0668,-0.0655,-0.0623,-0.0608,-0.059,-0.0563,-0.0552,-0.0526,-0.05,-0.0476,-0.0461,-0.0438,-0.0417,-0.0409,-0.0411,-0.0413,-0.0414,-0.0413,-0.0402,-0.0403,-0.0395,-0.0395,-0.0395,0,0,-0.0753,-0.0725,-0.0713,-0.0673,-0.0651,-0.063,-0.0614,-0.0592,-0.0577,-0.0548,-0.0524,-0.0504,-0.0473,-0.0451,-0.0439,-0.0434,-0.0414,-0.0414,-0.0416,-0.0414,-0.0402,-0.0403,-0.0403,-0.0395,-0.0395,-0.0395,0,0,-0.0756,-0.0733,-0.0716,-0.0695,-0.0662,-0.064,-0.0636,-0.0599,-0.0585,-0.0559,-0.0538,-0.0519,-0.048,-0.0458,-0.0443,-0.0439,-0.0424,-0.0433,-0.0441,-0.043,-0.0431,-0.0431,-0.0431,-0.0431,-0.0432,-0.0432,-0.0432,0,-0.077,-0.0737,-0.0709,-0.0689,-0.0673,-0.0646,-0.063,-0.061,-0.0572,-0.0561,-0.0556,-0.0506,-0.0483,-0.0456,-0.0455,-0.0443,-0.0438,-0.0437,-0.0433,-0.0433,-0.0433,-0.0432,-0.0432,-0.0433,-0.0433,-0.0433,-0.0433,0,-0.0756,-0.0734,-0.0724,-0.0688,-0.067,-0.0652,-0.0622,-0.0607,-0.0591,-0.0571,-0.0546,-0.0518,-0.0488,-0.0481,-0.0465,-0.0451,-0.0449,-0.0439,-0.043,-0.0436,-0.0434,-0.0434,-0.0435,-0.0434,-0.0434,-0.0434,0,0,-0.0775,-0.0724,-0.0721,-0.0705,-0.0667,-0.065,-0.0631,-0.0602,-0.059,-0.0565,-0.0549,-0.0516,-0.0507,-0.0489,-0.047,-0.0461,-0.0461,-0.0452,-0.0451,-0.0455,-0.0446,-0.0454,-0.0454,-0.0451,-0.0451,-0.0451,-0.0448,0,-0.0773,-0.0737,-0.0713,-0.0687,-0.0667,-0.0642,-0.0626,-0.0602,-0.0582,-0.0563,-0.0541,-0.0519,-0.0508,-0.0497,-0.0487,-0.0463,-0.0459,-0.0463,-0.0436,-0.0435,-0.0445,-0.0453,-0.0461,-0.046,-0.0448,-0.0448,-0.0447,0,-0.0766,-0.0741,-0.0714,-0.0679,-0.067,-0.0655,-0.0628,-0.0609,-0.0581,-0.0568,-0.0549,-0.053,-0.051,-0.0503,-0.0475,-0.0478,-0.0466,-0.0453,-0.0452,-0.0449,-0.0442,-0.045,-0.0459,-0.0459,-0.0446,-0.0446,-0.0446,0,-0.0783,-0.0743,-0.0722,-0.0708,-0.0667,-0.0658,-0.0641,-0.0613,-0.0597,-0.0573,-0.0563,-0.0537,-0.0523,-0.0504,-0.0479,-0.0476,-0.0454,-0.0444,-0.0442,-0.0443,-0.0438,-0.0439,-0.0446,-0.043,-0.043,-0.043,-0.043,0,-0.0783,-0.0767,-0.0729,-0.0716,-0.0698,-0.067,-0.0653,-0.0634,-0.0609,-0.0592,-0.057,-0.0554,-0.0522,-0.0504,-0.0484,-0.0464,-0.0458,-0.0447,-0.0442,-0.0449,-0.045,-0.044,-0.044,-0.043,-0.043,-0.043,-0.043,0,-0.0799,-0.0773,-0.0748,-0.0711,-0.0702,-0.069,-0.066,-0.0646,-0.0626,-0.0605,-0.0599,-0.0567,-0.0543,-0.0517,-0.0484,-0.0471,-0.0453,-0.0446,-0.0463,-0.046,-0.0459,-0.046,-0.046,-0.0459,-0.0444,-0.0444,-0.0444,0,-0.0801,-0.0788,-0.0751,-0.0738,-0.0721,-0.0701,-0.0685,-0.0658,-0.0643,-0.0611,-0.0602,-0.0577,-0.0555,-0.0519,-0.0493,-0.0469,-0.0461,-0.0463,-0.0457,-0.0465,-0.0461,-0.0462,-0.0461,-0.0464,-0.0464,-0.0465,-0.0465,0,-0.0807,-0.0795,-0.0773,-0.0748,-0.073,-0.0708,-0.0685,-0.0676,-0.0645,-0.0629,-0.0605,-0.0588,-0.0556,-0.0532,-0.0504,-0.0487,-0.0471,-0.0467,-0.0465,-0.0472,-0.0483,-0.0478,-0.0467,-0.0467,-0.0467,-0.0467,-0.0467,-0.0466,-0.0816,-0.0804,-0.0776,-0.0753,-0.0734,-0.0713,-0.0699,-0.0678,-0.0657,-0.0629,-0.0614,-0.059,-0.0564,-0.0526,-0.0509,-0.049,-0.0485,-0.0482,-0.0481,-0.0481,-0.0484,-0.0486,-0.0485,-0.0485,-0.0485,-0.0485,-0.0485,0,-0.0821,-0.0803,-0.0782,-0.0751,-0.0733,-0.072,-0.0695,-0.0681,-0.0661,-0.0638,-0.0617,-0.059,-0.0567,-0.054,-0.0515,-0.0505,-0.0498,-0.05,-0.05,-0.0497,-0.0489,-0.0494,-0.0507,-0.0507,-0.0507,-0.0507,-0.0507,-0.0507,-0.0822,-0.0801,-0.0786,-0.0756,-0.0737,-0.0714,-0.0701,-0.0683,-0.0664,-0.0635,-0.0615,-0.0598,-0.0574,-0.0547,-0.0525,-0.0518,-0.051,-0.0514,-0.0505,-0.0499,-0.0497,-0.0495,-0.0499,-0.0513,-0.0513,-0.0514,-0.0514,-0.0514]},{"header":{"parameterUnit":"m.s-1","parameterCategory":1,"la1":30.2991,"la2":30.254,"lo1":-89.0895,"lo2":-89.0444,"dy":0.0017,"dx":0.0017,"nx":28,"ny":28,"refTime":"2025-03-21T09:00:00:Z","depth":0,"parameterNumber":3,"parameterNumberName":"V-component_of_WINDS"},"data":[0,0,0,0,0,0,0,0,0,0,0,0,0,0,0,0,0,0,0,0,0,0,0,0,0,0,0,0,0,0,0,0,0,0,0,0,0,0,0,0,0,0,0,0,0,0,0,0,0,0,0,0,0,0,0,0,0,0,4.7749,4.7749,0,4.7746,4.7746,4.7746,4.7659,4.7656,4.7654,4.7652,4.7649,4.7651,4.7653,0,0,0,0,0,0,0,0,0,0,0,0,0,4.768,4.7682,4.7749,4.7749,4.7749,4.7746,4.7746,4.7745,4.7659,4.7656,4.7654,4.7651,4.7648,4.7651,4.7653,0,0,0,0,0,0,0,0,0,0,0,0,0,4.7697,4.7683,4.7749,4.7706,4.7702,4.7746,4.7746,4.7745,4.766,4.7656,4.7653,4.765,4.7647,4.765,4.7653,4.7739,0,0,4.7662,4.7664,0,0,0,0,0,0,0,0,4.7696,4.77,4.7712,4.7709,4.7704,4.7699,4.772,4.7743,4.766,4.7676,4.7652,4.7648,4.7668,4.7669,4.7676,4.7739,4.7739,4.7663,4.7665,4.7666,4.7667,0,0,0,0,0,0,0,4.7695,4.7699,4.7748,4.7712,4.7708,4.7686,4.7684,4.7724,4.7691,4.7674,4.7668,4.7668,4.7666,4.7673,4.7675,4.7739,4.7663,4.7665,4.7667,4.7668,4.7869,4.7873,0,0,0,0,0,0,4.77,4.7699,4.7748,4.7748,4.7692,4.769,4.7688,4.7704,4.769,4.7685,4.7671,4.7664,4.767,4.7672,4.7675,4.7772,4.7666,4.7669,4.767,4.7866,4.787,4.7874,0,0,0,0,0,0,4.7699,4.7705,4.7748,4.7722,4.7725,4.7695,4.7713,4.7706,4.7714,4.7688,4.7682,4.7685,4.7667,4.7671,4.7723,4.7771,4.767,4.7673,4.7862,4.7867,4.7872,4.797,0,0,0,0,0,0,4.7697,4.7705,4.7738,4.7723,4.7727,4.7797,4.7716,4.7708,4.7719,4.771,4.77,4.7695,4.7665,4.7719,4.7726,4.7774,4.7675,4.7857,4.7864,4.787,4.7962,4.7978,4.7991,0,0,0,0,0,4.7695,4.7766,4.774,4.7746,4.7767,4.78,4.7802,4.7766,4.7723,4.7755,4.7739,4.7695,4.7765,4.7725,4.7732,4.7781,4.7854,4.7862,4.787,4.7955,4.7975,4.7991,0,0,0,0,0,0,4.7788,4.7763,4.7734,4.7803,4.7804,4.7785,4.7824,4.7788,4.7802,4.7793,4.7748,4.7746,4.7805,4.7799,4.7755,4.7863,4.7802,4.7812,4.7864,4.7882,4.7897,4.7896,4.7678,0,0,0,0,0,4.7817,4.7845,4.7822,4.7885,4.7887,4.7856,4.7869,4.7841,4.784,4.7841,4.7828,4.7829,4.7851,4.7867,4.7886,4.7961,4.7957,4.7998,4.8013,4.8025,4.8033,4.8071,4.8088,4.79,4.79,4.79,0,0,4.7876,4.7866,4.7887,4.7903,4.7901,4.7931,4.7857,4.7892,4.7914,4.7846,4.7894,4.7885,4.7883,4.7947,4.7975,4.7944,4.8085,4.8035,4.8045,4.8047,4.8081,4.8099,4.8115,4.7906,4.7905,4.7904,0,0,4.7998,4.7995,4.8045,4.8044,4.8041,4.802,4.8032,4.8018,4.8009,4.8057,4.8006,4.8031,4.8071,4.8071,4.8077,4.8198,4.8158,4.8206,4.8281,4.8318,4.8333,4.8346,4.8387,4.8403,4.8215,4.8215,4.8215,0,4.8072,4.8115,4.8076,4.8114,4.8122,4.8061,4.8111,4.8112,4.8116,4.8123,4.8088,4.8135,4.813,4.8192,4.8222,4.8229,4.824,4.8206,4.8334,4.8347,4.8358,4.8397,4.8413,4.8221,4.822,4.8219,4.8219,0,4.8205,4.8236,4.8277,4.8281,4.8294,4.8338,4.8304,4.8322,4.8293,4.8276,4.8324,4.8316,4.8331,4.8344,4.8317,4.8402,4.8382,4.8342,4.8279,4.8382,4.8418,4.8433,4.8229,4.8227,4.8225,4.8224,0,0,4.8386,4.8367,4.8382,4.8382,4.8374,4.8397,4.8438,4.8452,4.8468,4.8473,4.8505,4.8539,4.8501,4.8507,4.8479,4.8512,4.8606,4.8467,4.8466,4.8491,4.8698,4.8727,4.8745,4.858,4.8583,4.8585,4.8697,0,4.8503,4.8571,4.8536,4.8608,4.8635,4.8578,4.8613,4.8612,4.8596,4.8617,4.86,4.8624,4.8573,4.8576,4.8606,4.8589,4.8647,4.858,4.8609,4.861,4.8609,4.8764,4.8796,4.8902,4.8711,4.8714,4.8715,0,4.8648,4.8658,4.8733,4.8717,4.8727,4.876,4.8769,4.879,4.8787,4.8773,4.878,4.8743,4.8782,4.8722,4.8773,4.8729,4.8739,4.8732,4.8735,4.8735,4.8668,4.8767,4.8935,4.895,4.8737,4.8736,4.8734,0,4.877,4.8802,4.885,4.8852,4.8837,4.886,4.8855,4.8848,4.8859,4.8867,4.8873,4.8887,4.8894,4.8905,4.8873,4.8833,4.8929,4.8866,4.8918,4.8919,4.8939,4.8938,4.911,4.8949,4.8949,4.8949,4.8948,0,4.8903,4.8951,4.8904,4.8934,4.8985,4.8944,4.8996,4.8984,4.8979,4.9005,4.8957,4.8983,4.894,4.8961,4.8937,4.8982,4.8987,4.8976,4.8968,4.8979,4.898,4.8984,4.8975,4.8953,4.8952,4.8951,4.895,0,4.9048,4.9019,4.9067,4.9048,4.9044,4.9082,4.9065,4.9092,4.9073,4.9106,4.9112,4.9082,4.9104,4.9074,4.9094,4.9077,4.9139,4.9122,4.914,4.9134,4.9186,4.9181,4.9365,4.9386,4.9214,4.9215,4.9217,0,4.9134,4.9169,4.9153,4.9166,4.9163,4.9186,4.9195,4.9157,4.9169,4.9167,4.9193,4.9211,4.9223,4.9262,4.9242,4.9256,4.9238,4.9301,4.924,4.9249,4.9236,4.9234,4.9237,4.9313,4.9315,4.9317,4.9318,0,4.9289,4.9272,4.9288,4.9298,4.9311,4.9317,4.9321,4.9334,4.9293,4.931,4.9331,4.934,4.936,4.9378,4.9387,4.9381,4.9343,4.9338,4.935,4.9361,4.9369,4.9363,4.9172,4.9334,4.9332,4.9331,4.933,4.933,4.9405,4.9433,4.9425,4.9443,4.9441,4.9445,4.9468,4.9451,4.9468,4.948,4.9456,4.9483,4.9478,4.9486,4.9485,4.9505,4.9478,4.9496,4.95,4.9505,4.9512,4.9367,4.9507,4.9507,4.9506,4.9506,4.9506,0,4.9556,4.9548,4.9565,4.957,4.9584,4.9547,4.9548,4.9562,4.9586,4.9585,4.9597,4.9621,4.9638,4.962,4.9633,4.9653,4.9636,4.9658,4.9655,4.9654,4.9537,4.9524,4.9671,4.9671,4.9671,4.9671,4.9671,4.9671,4.9636,4.968,4.9662,4.9704,4.9695,4.9721,4.9724,4.9727,4.9725,4.9753,4.9767,4.9754,4.9745,4.9758,4.9771,4.9765,4.9772,4.98,4.9788,4.9679,4.9662,4.9647,4.9634,4.9802,4.9802,4.9902,4.9903,4.9904]}]]